EW1710 Weather Reports


time (UTC)temp
C
wind
direction
speed
KPH
gust
KPH
rain 1hr
cm
rain 24hr
cm
rain mn
cm
humidity
%
barometer
mb
20260510175447 15 84 6.4 9.7 0.00 0.00 0.00 34 1019.3
20260510174943 15 309 3.2 4.8 0.00 0.00 0.00 34 1019.1
20260510174441 15 351 4.8 4.8 0.00 0.00 0.00 34 1019.3
20260510173938 15 10 3.2 3.2 0.00 0.00 0.00 36 1019.4
20260510173433 15 148 1.6 1.6 0.00 0.00 0.00 32 1019.1
20260510172930 15 275 3.2 4.8 0.00 0.00 0.00 34 1019.3
20260510172426 15 357 4.8 4.8 0.00 0.00 0.00 30 1019.5
20260510171922 15 72 0.0 1.6 0.00 0.00 0.00 34 1019.3
20260510171419 15 330 6.4 8.0 0.00 0.00 0.00 33 1019.5
20260510170916 15 27 4.8 8.0 0.00 0.00 0.00 35 1019.8
20260510170413 15 24 1.6 1.6 0.00 0.00 0.00 33 1019.5
20260510165908 15 83 6.4 9.7 0.00 0.00 0.00 37 1019.5
20260510165404 15 30 4.8 4.8 0.00 0.00 0.00 36 1019.3
20260510164902 14 211 4.8 4.8 0.00 0.00 0.00 33 1019.4
20260510164359 15 285 17.7 20.9 0.00 0.00 0.00 33 1019.4
20260510163859 15 357 4.8 4.8 0.00 0.00 0.00 32 1019.3
20260510163355 15 32 8.0 9.7 0.00 0.00 0.00 34 1019.1
20260510162849 15 44 1.6 1.6 0.00 0.00 0.00 38 1019.4
20260510162347 15 329 1.6 3.2 0.00 0.00 0.00 39 1019.1
20260510161842 15 97 6.4 8.0 0.00 0.00 0.00 35 1019.0
20260510161339 14 154 1.6 1.6 0.00 0.00 0.00 48 1019.0
20260510160836 14 114 4.8 3.2 0.00 0.00 0.00 35 1018.9
20260510160332 14 31 4.8 8.0 0.00 0.00 0.00 41 1019.0
20260510155826 14 25 1.6 1.6 0.00 0.00 0.00 39 1019.0
20260510155324 13 328 8.0 9.7 0.00 0.00 0.00 37 1018.8
20260510154819 14 56 4.8 8.0 0.00 0.00 0.00 41 1018.8
20260510154315 13 308 4.8 4.8 0.00 0.00 0.00 45 1018.8
20260510153810 13 253 6.4 8.0 0.00 0.00 0.00 39 1018.7
20260510153306 13 22 1.6 3.2 0.00 0.00 0.00 45 1018.8
20260510152803 13 287 3.2 3.2 0.00 0.00 0.00 44 1018.6
20260510152300 13 314 6.4 9.7 0.00 0.00 0.00 43 1018.7
20260510151756 13 259 3.2 4.8 0.00 0.00 0.00 41 1018.6
20260510151255 13 34 3.2 3.2 0.00 0.00 0.00 47 1018.7
20260510150750 13 41 3.2 4.8 0.00 0.00 0.00 42 1018.5
20260510150246 13 30 3.2 3.2 0.00 0.00 0.00 44 1018.3
20260510145742 13 275 8.0 9.7 0.00 0.00 0.00 45 1018.3
20260510145239 13 79 1.6 1.6 0.00 0.00 0.00 44 1018.3
20260510144734 13 284 3.2 3.2 0.00 0.00 0.00 46 1018.4
20260510144232 12 42 4.8 4.8 0.00 0.00 0.00 43 1018.3
20260510143726 12 28 3.2 3.2 0.00 0.00 0.00 43 1018.4
20260510143223 12 254 8.0 11.3 0.00 0.00 0.00 43 1018.4
20260510142719 12 32 1.6 1.6 0.00 0.00 0.00 43 1018.1
20260510142216 12 26 6.4 8.0 0.00 0.00 0.00 43 1018.3
20260510141713 12 61 3.2 3.2 0.00 0.00 0.00 45 1018.1
20260510141212 12 109 4.8 9.7 0.00 0.00 0.00 48 1018.4
20260510140708 12 46 3.2 1.6 0.00 0.00 0.00 44 1018.2
20260510140207 11 0 6.4 11.3 0.00 0.00 0.00 43 1018.2
20260510135702 11 30 4.8 4.8 0.00 0.00 0.00 45 1018.5
20260510135158 11 16 8.0 11.3 0.00 0.00 0.00 44 1018.3
20260510134656 11 5 3.2 3.2 0.00 0.00 0.00 51 1018.2
20260510134153 11 14 6.4 9.7 0.00 0.00 0.00 51 1018.2
20260510133649 11 338 3.2 3.2 0.00 0.00 0.00 54 1018.1
20260510133144 11 309 3.2 3.2 0.00 0.00 0.00 55 1018.1
20260510132641 10 28 3.2 3.2 0.00 0.00 0.00 55 1017.8
20260510132139 10 3 3.2 3.2 0.00 0.00 0.00 57 1017.8
20260510131636 10 325 1.6 1.6 0.00 0.00 0.00 63 1017.7
20260510131133 10 3 3.2 3.2 0.00 0.00 0.00 63 1017.9
20260510130630 10 26 1.6 1.6 0.00 0.00 0.00 63 1017.4
20260510130127 9 38 1.6 1.6 0.00 0.00 0.00 66 1017.5
20260510125623 9 48 0.0 0.0 0.00 0.00 0.00 72 1017.3
20260510125120 9 17 6.4 9.7 0.00 0.00 0.00 68 1017.4
20260510124617 9 43 1.6 1.6 0.00 0.00 0.00 73 1017.4
20260510124113 10 219 3.2 3.2 0.00 0.00 0.00 73 1017.3
20260510123609 9 47 1.6 1.6 0.00 0.00 0.00 73 1017.2
20260510123105 9 67 1.6 1.6 0.00 0.00 0.00 72 1017.1
20260510122601 8 10 1.6 1.6 0.00 0.00 0.00 73 1017.0
20260510122057 8 20 3.2 3.2 0.00 0.00 0.00 77 1017.2
20260510121554 8 295 3.2 3.2 0.00 0.00 0.00 78 1017.0
20260510121051 8 15 1.6 1.6 0.00 0.00 0.00 78 1016.9
20260510120549 8 27 1.6 3.2 0.00 0.00 0.00 78 1016.9
20260510120044 8 136 0.0 1.6 0.00 0.00 0.00 81 1016.5
20260510115541 8 24 1.6 1.6 0.00 0.00 0.00 81 1016.3
20260510115039 8 195 4.8 4.8 0.00 0.00 0.00 83 1016.2
20260510114534 8 330 0.0 1.6 0.00 0.00 0.00 85 1016.0
20260510114030 8 25 3.2 3.2 0.00 0.00 0.00 85 1016.0
20260510113526 8 356 0.0 0.0 0.00 0.00 0.00 86 1016.0
20260510113024 8 354 1.6 1.6 0.00 0.00 0.00 85 1015.9
20260510112520 8 38 0.0 0.0 0.00 0.00 0.00 83 1015.6
20260510112016 8 323 0.0 0.0 0.00 0.00 0.00 83 1015.7
20260510111514 8 278 0.0 0.0 0.00 0.00 0.00 84 1015.5
20260510111009 8 21 1.6 1.6 0.00 0.00 0.00 86 1015.5
20260510110505 8 22 0.0 0.0 0.00 0.00 0.00 86 1015.3
20260510110002 8 351 0.0 1.6 0.00 0.00 0.00 86 1015.2
20260510105457 8 319 1.6 3.2 0.00 0.00 0.00 88 1015.0
20260510104952 8 255 1.6 1.6 0.00 0.00 0.00 89 1015.0
20260510104449 8 228 0.0 1.6 0.00 0.00 0.00 90 1014.8
20260510103945 8 127 0.0 0.0 0.00 0.00 0.00 91 1014.9
20260510103443 7 300 0.0 0.0 0.00 0.00 0.00 91 1014.5
20260510102938 7 300 1.6 1.6 0.00 0.00 0.00 91 1014.4
20260510102434 7 301 0.0 0.0 0.00 0.00 0.00 91 1014.4
20260510101931 7 299 3.2 3.2 0.00 0.00 0.00 91 1014.3
20260510101429 7 270 0.0 0.0 0.00 0.00 0.00 90 1014.4
20260510100927 7 278 0.0 1.6 0.00 0.00 0.00 90 1014.0
20260510100423 7 307 0.0 0.0 0.00 0.00 0.00 90 1013.9
20260510095919 8 307 0.0 0.0 0.00 0.00 0.00 89 1014.1
20260510095415 7 300 8.0 9.7 0.00 0.00 0.00 90 1014.3
20260510094914 8 249 0.0 0.0 0.00 0.00 0.00 90 1014.0
20260510094409 8 247 0.0 0.0 0.00 0.00 0.00 89 1013.9
20260510093905 8 247 0.0 0.0 0.00 0.00 0.00 89 1013.8
20260510093401 8 247 0.0 0.0 0.00 0.00 0.00 89 1013.9
20260510092857 8 247 0.0 0.0 0.00 0.00 0.00 88 1013.9
20260510092354 7 286 1.6 1.6 0.00 0.00 0.00 89 1013.5
20260510091849 7 279 0.0 0.0 0.00 0.00 0.00 91 1013.4
20260510091347 7 269 0.0 0.0 0.00 0.00 0.00 91 1013.3
20260510090843 7 269 0.0 0.0 0.00 0.00 0.00 90 1013.5
20260510090340 7 269 0.0 0.0 0.00 0.00 0.00 90 1013.3
20260510085835 7 299 0.0 0.0 0.00 0.00 0.00 93 1013.3
20260510085330 7 299 1.6 1.6 0.00 0.00 0.00 93 1012.9
20260510084826 7 298 1.6 1.6 0.00 0.00 0.00 93 1013.2
20260510084323 7 299 0.0 0.0 0.00 0.00 0.00 93 1012.8
20260510083820 7 299 0.0 0.0 0.00 0.00 0.00 92 1012.8
20260510083317 7 299 0.0 0.0 0.00 0.00 0.00 92 1012.8
20260510082812 7 299 0.0 0.0 0.00 0.00 0.00 91 1012.6
20260510082310 8 299 0.0 0.0 0.00 0.00 0.00 90 1012.7
20260510081809 8 299 0.0 0.0 0.00 0.00 0.00 89 1012.8
20260510081304 8 299 0.0 0.0 0.00 0.00 0.00 88 1012.7
20260510080801 8 299 0.0 0.0 0.00 0.00 0.00 87 1012.5
20260510080255 8 298 0.0 0.0 0.00 0.00 0.00 86 1012.8
20260510075753 8 298 0.0 0.0 0.00 0.00 0.00 84 1012.4
20260510075250 8 298 0.0 0.0 0.00 0.00 0.00 83 1012.2
20260510074747 8 298 0.0 0.0 0.00 0.00 0.00 83 1012.1
20260510074244 8 298 0.0 0.0 0.00 0.00 0.00 82 1012.1
20260510073740 8 297 1.6 0.0 0.00 0.00 0.00 83 1011.9
20260510073236 9 248 0.0 0.0 0.00 0.00 0.00 83 1011.8
20260510072731 9 247 1.6 1.6 0.00 0.00 0.00 81 1012.0
20260510072228 10 247 0.0 0.0 0.00 0.00 0.00 81 1011.9
20260510071725 10 264 1.6 1.6 0.00 0.00 0.00 80 1011.9
20260510071221 10 287 0.0 1.6 0.00 0.00 0.00 80 1011.8
20260510070720 10 307 1.6 1.6 0.00 0.00 0.00 84 1011.8
20260510070217 10 319 1.6 1.6 0.00 0.00 0.00 83 1011.7
20260510065712 10 318 1.6 1.6 0.00 0.00 0.00 85 1011.5
20260510065208 10 284 1.6 1.6 0.00 0.00 0.00 86 1011.6
20260510064705 10 355 1.6 1.6 0.00 0.00 0.00 87 1011.3
20260510064203 10 9 1.6 1.6 0.00 0.00 0.00 87 1011.2
20260510063659 10 2 1.6 1.6 0.00 0.00 0.00 90 1011.5
20260510063155 10 39 0.0 0.0 0.00 0.00 0.00 90 1011.1
20260510062652 11 32 1.6 1.6 0.00 0.00 0.00 89 1011.2
20260510062148 11 2 0.0 0.0 0.00 0.00 0.00 90 1011.3
20260510061643 11 350 1.6 1.6 0.00 0.00 0.00 92 1011.4
20260510061141 11 9 3.2 3.2 0.00 0.00 0.00 94 1011.3
20260510060637 12 3 4.8 3.2 0.00 0.00 0.00 95 1011.2
20260510060134 12 207 3.2 3.2 0.00 0.00 0.00 95 1011.1
20260510055630 12 149 1.6 1.6 0.00 0.00 0.00 95 1010.8
20260510055128 12 148 0.0 0.0 0.00 0.00 0.00 95 1010.7
20260510054623 12 170 0.0 0.0 0.00 0.00 0.00 95 1010.6
20260510054119 12 140 0.0 0.0 0.00 0.00 0.00 95 1010.7
20260510053618 12 142 0.0 0.0 0.00 0.00 0.00 95 1011.1
20260510053115 11 83 0.0 0.0 0.00 0.00 0.00 95 1010.8
20260510052611 11 150 0.0 0.0 0.00 0.00 0.00 95 1010.8
20260510052108 11 150 0.0 0.0 0.00 0.00 0.00 94 1010.3
20260510051603 11 178 0.0 0.0 0.00 0.00 0.00 94 1010.2
20260510051101 11 200 0.0 0.0 0.00 0.00 0.00 94 1010.3
20260510050558 11 275 0.0 0.0 0.00 0.00 0.00 94 1010.0
20260510050055 11 14 4.8 4.8 0.00 0.00 0.00 93 1010.3
20260510045552 11 25 3.2 3.2 0.00 0.00 0.00 93 1010.0
20260510045048 11 143 1.6 1.6 0.00 0.00 0.00 93 1009.5
20260510044544 12 138 0.0 1.6 0.00 0.00 0.00 92 1009.3
20260510044042 12 150 0.0 0.0 0.00 0.00 0.00 92 1009.3
20260510043537 12 118 1.6 1.6 0.00 0.00 0.00 92 1009.1
20260510043033 12 175 3.2 3.2 0.00 0.00 0.00 92 1009.1
20260510042527 12 153 0.0 0.0 0.00 0.00 0.00 92 1009.2
20260510042022 12 146 0.0 0.0 0.00 0.00 0.00 92 1009.1
20260510041520 12 131 0.0 0.0 0.00 0.00 0.00 92 1009.2
20260510041017 12 165 1.6 1.6 0.00 0.00 0.00 92 1009.0
20260510040514 12 202 0.0 0.0 0.00 0.00 0.00 92 1008.9
20260510040009 12 202 0.0 0.0 0.00 1.55 1.55 91 1008.9
20260510035506 12 203 0.0 0.0 0.00 1.55 1.55 91 1009.1
20260510035005 12 203 0.0 0.0 0.00 1.55 1.55 90 1009.0
20260510034504 12 193 0.0 0.0 0.18 1.55 1.55 89 1008.9
20260510034000 12 140 4.8 4.8 0.18 1.55 1.55 90 1009.1
20260510033456 12 165 0.0 1.6 0.00 1.52 1.52 90 1009.2
20260510032954 13 158 1.6 0.0 0.00 1.52 1.52 89 1009.3
20260510032450 13 72 0.0 0.0 0.13 1.52 1.52 89 1009.1
20260510031945 13 248 8.0 11.3 0.13 1.52 1.52 89 1009.4
20260510031441 12 255 3.2 3.2 0.18 1.50 1.50 90 1009.2
20260510030937 12 321 1.6 1.6 0.00 1.47 1.47 92 1009.6
20260510030432 12 171 0.0 0.0 0.00 1.47 1.47 92 1009.0
20260510025930 12 179 0.0 0.0 0.00 1.47 1.47 92 1009.2
20260510025427 12 178 0.0 0.0 0.00 1.47 1.47 92 1009.1
20260510024925 12 232 0.0 0.0 0.00 1.47 1.47 92 1009.3
20260510024421 12 199 0.0 0.0 0.00 1.47 1.47 91 1009.1
20260510023917 12 216 0.0 0.0 0.13 1.47 1.47 90 1008.9
20260510023413 12 270 3.2 3.2 0.43 1.47 1.47 90 1008.8
20260510022911 12 179 3.2 3.2 0.48 1.45 1.45 89 1009.0
20260510022409 13 299 3.2 3.2 0.61 1.42 1.42 88 1009.7
20260510021909 13 286 8.0 9.7 1.19 1.37 1.37 89 1009.7
20260510021407 12 211 8.0 14.5 1.02 1.30 1.30 96 1009.5
20260510020903 11 177 0.0 0.0 0.43 1.19 1.19 96 1009.1
20260510020358 11 96 0.0 0.0 0.00 1.12 1.12 96 1008.6
20260510015854 11 96 0.0 0.0 0.00 1.12 1.12 96 1008.5
20260510015350 11 96 0.0 0.0 0.00 1.12 1.12 96 1008.5
20260510014845 11 96 0.0 0.0 0.00 1.12 1.12 95 1008.6
20260510014343 11 97 0.0 0.0 0.00 1.12 1.12 95 1008.4
20260510013839 11 126 0.0 0.0 0.00 1.12 1.12 95 1008.0
20260510013335 11 126 0.0 0.0 0.00 1.12 1.12 95 1008.3
20260510012830 11 126 0.0 0.0 0.00 1.12 1.12 94 1008.5
20260510012330 11 126 0.0 0.0 0.00 1.12 1.12 94 1008.3
20260510011825 11 126 0.0 0.0 0.00 1.12 1.12 94 1008.1
20260510011320 11 126 0.0 0.0 0.00 1.12 1.12 94 1008.3
20260510010817 12 127 0.0 0.0 0.00 1.12 1.12 93 1008.1
20260510010314 12 126 0.0 0.0 0.00 1.12 1.12 93 1008.1
20260510005811 12 127 1.6 1.6 0.00 1.12 1.12 93 1008.0
20260510005307 12 165 0.0 0.0 0.00 1.12 1.12 92 1008.0
20260510004805 12 166 0.0 0.0 0.00 1.12 1.12 91 1008.0
20260510004302 12 204 0.0 0.0 0.00 1.12 1.12 90 1008.0
20260510003759 12 99 0.0 0.0 0.00 1.12 1.12 90 1008.1
20260510003257 12 118 1.6 1.6 0.00 1.12 1.12 89 1008.2
20260510002755 12 154 1.6 1.6 0.00 1.12 1.12 90 1008.1
20260510002253 13 90 0.0 0.0 0.00 1.12 1.12 89 1007.9
20260510001749 13 18 3.2 3.2 0.00 1.12 1.12 89 1008.0
20260510001248 13 191 0.0 0.0 0.00 1.12 1.12 89 1008.0
20260510000743 13 287 1.6 0.0 0.00 1.12 1.12 88 1007.9
20260510000241 13 229 1.6 1.6 0.00 1.12 1.12 89 1008.0
20260509235737 13 264 3.2 3.2 0.18 1.12 1.12 89 1008.0
20260509235234 13 254 3.2 3.2 0.18 1.12 1.12 89 1008.1
20260509234730 13 49 0.0 0.0 0.18 1.12 1.12 89 1008.3
20260509234227 13 124 0.0 1.6 0.00 1.09 1.09 89 1008.3
20260509233725 13 222 1.6 1.6 0.00 1.09 1.09 90 1008.3
20260509233222 12 295 1.6 3.2 0.13 1.09 1.09 89 1008.0
20260509232718 13 54 1.6 1.6 0.43 1.09 1.09 89 1007.9
20260509232216 13 323 4.8 3.2 0.66 1.07 1.07 88 1008.0
20260509231712 13 329 12.9 17.7 1.07 1.02 1.02 88 1008.3
20260509231209 13 299 9.7 16.1 2.59 0.97 0.97 88 1008.5
20260509230706 13 260 8.0 11.3 1.98 0.86 0.86 86 1008.6
20260509230157 15 245 11.3 12.9 0.18 0.56 0.56 79 1008.9
20260509225653 17 291 16.1 24.1 0.00 0.53 0.53 66 1007.3
20260509225149 20 280 8.0 9.7 0.00 0.53 0.53 52 1007.2
20260509224645 20 273 8.0 9.7 0.00 0.53 0.53 50 1005.9
20260509224142 20 333 6.4 9.7 0.00 0.53 0.53 49 1005.9
20260509223639 20 200 3.2 4.8 0.00 0.53 0.53 48 1005.8
20260509223136 20 294 1.6 3.2 0.00 0.53 0.53 49 1005.5
20260509222633 20 230 3.2 3.2 0.00 0.53 0.53 48 1005.0
20260509222128 20 83 1.6 1.6 0.00 0.53 0.53 48 1005.5
20260509221624 20 199 3.2 4.8 0.00 0.53 0.53 49 1005.4
20260509221120 20 10 1.6 3.2 0.00 0.53 0.53 50 1005.6
20260509220616 20 220 1.6 1.6 0.00 0.53 0.53 50 1005.4
20260509220113 20 28 4.8 8.0 0.00 0.53 0.53 49 1005.5
20260509215609 20 114 0.0 0.0 0.00 0.53 0.53 51 1005.7
20260509215106 21 74 6.4 9.7 0.00 0.53 0.53 47 1005.4
20260509214602 21 228 6.4 9.7 0.00 0.53 0.53 46 1005.4
20260509214059 21 308 8.0 9.7 0.00 0.53 0.53 45 1005.7
20260509213555 22 300 3.2 3.2 0.00 0.53 0.53 45 1005.6
20260509213052 22 111 0.0 0.0 0.00 0.53 0.53 47 1005.4
20260509212549 21 191 4.8 4.8 0.00 0.53 0.53 48 1005.5
20260509212046 21 182 6.4 4.8 0.00 0.53 0.53 51 1005.5
20260509211542 21 128 3.2 3.2 0.00 0.53 0.53 48 1005.2
20260509211039 21 176 1.6 1.6 0.00 0.53 0.53 51 1005.3
20260509210536 21 301 8.0 9.7 0.00 0.53 0.53 49 1005.8
20260509210032 21 60 3.2 3.2 0.00 0.53 0.53 49 1005.7
20260509205526 21 296 3.2 4.8 0.00 0.53 0.53 51 1005.8
20260509205022 21 179 1.6 4.8 0.00 0.53 0.53 51 1005.8
20260509204518 21 325 1.6 4.8 0.00 0.53 0.53 51 1005.9
20260509204015 21 179 4.8 8.0 0.00 0.53 0.53 50 1005.7
20260509203510 21 341 1.6 3.2 0.00 0.53 0.53 51 1006.0
20260509203009 21 188 6.4 9.7 0.00 0.53 0.53 49 1006.0
20260509202503 21 283 4.8 4.8 0.00 0.53 0.53 50 1006.2
20260509201959 21 259 3.2 3.2 0.00 0.53 0.53 51 1006.3
20260509201454 21 92 6.4 9.7 0.00 0.53 0.53 49 1006.4
20260509200952 21 172 3.2 4.8 0.00 0.53 0.53 51 1006.4
20260509200446 21 170 8.0 14.5 0.00 0.53 0.53 50 1006.4
20260509195943 21 162 12.9 14.5 0.00 0.53 0.53 51 1006.6
20260509195433 21 336 4.8 4.8 0.00 0.53 0.53 50 1006.7
20260509194933 22 314 1.6 3.2 0.00 0.53 0.53 48 1006.8
20260509194428 21 253 6.4 8.0 0.00 0.53 0.53 51 1006.9
20260509193926 21 321 9.7 11.3 0.00 0.53 0.53 48 1006.4
20260509193425 21 280 6.4 8.0 0.00 0.53 0.53 50 1006.6
20260509192922 21 189 8.0 11.3 0.00 0.53 0.53 49 1006.8
20260509192418 21 251 4.8 8.0 0.00 0.53 0.53 51 1007.3
20260509191913 21 179 9.7 12.9 0.00 0.53 0.53 52 1007.3
20260509191409 21 236 6.4 9.7 0.00 0.53 0.53 50 1007.1
20260509190905 20 162 4.8 4.8 0.00 0.53 0.53 54 1007.4
20260509190403 20 220 11.3 14.5 0.00 0.53 0.53 52 1007.4
20260509185900 20 162 6.4 8.0 0.00 0.53 0.53 53 1007.5
20260509185356 21 194 8.0 11.3 0.00 0.53 0.53 52 1007.4
20260509184853 20 221 6.4 9.7 0.00 0.53 0.53 52 1007.6
20260509184350 20 305 4.8 3.2 0.00 0.53 0.53 54 1007.7
20260509183847 20 182 9.7 12.9 0.00 0.53 0.53 54 1007.8
20260509183342 20 118 1.6 1.6 0.00 0.53 0.53 55 1007.4
20260509182838 20 2 3.2 3.2 0.00 0.53 0.53 57 1007.7
20260509182336 20 276 11.3 17.7 0.00 0.53 0.53 53 1007.7
20260509181833 20 176 8.0 11.3 0.00 0.53 0.53 53 1007.7
20260509181330 20 169 9.7 12.9 0.00 0.53 0.53 54 1007.5
20260509180827 20 327 4.8 4.8 0.00 0.53 0.53 54 1007.5
20260509180323 20 84 3.2 3.2 0.00 0.53 0.53 53 1007.4